Location: Indian Springs
(36.5700°N, 115.6700°W)
Time: 03:42:09
(UTC-07:00)

Daily predictions for brighter satellites

Satellite Brightness Start Highest point End
(mag) Time Altitude Azimuth Time Altitude Azimuth Time Altitude Azimuth
ALOS 2 4.4 00:15:08 29° N 00:15:08 29° N 00:17:21 10° N
Cosmos 2360 Rocket 4.4 00:17:55 10° NNE 00:21:20 16° NE 00:23:00 14° ENE
Cosmos 1980 Rocket 3.0 00:17:21 10° NNW 00:21:21 46° NW 00:21:21 46° NW
Cosmos 2322 Rocket 3.1 00:25:27 10° N 00:30:12 44° NE 00:30:12 44° NE
CZ-2C R/B 4.3 00:44:56 38° NW 00:44:56 38° NW 00:48:37 10° NNW
SeaSat 1 4.3 00:49:17 24° NW 00:49:17 24° NW 00:51:27 10° NW
NOSS 3-1 (C) 4.2 00:51:17 10° NNW 00:58:59 70° ENE 01:00:33 58° ESE
ATLAS 3B CENTAUR R/B 4.5 00:37:54 10° SW 01:05:23 43° SE 01:11:59 10° E
ATLAS CENTAUR R/B 4.1 01:03:38 10° NNW 01:04:15 14° N 01:04:15 14° N
CZ-2C R/B 4.2 01:03:37 10° N 01:08:00 28° WNW 01:08:00 28° WNW
Meteor 2-5 Rocket 4.5 01:12:51 48° NW 01:12:51 48° NW 01:17:46 10° N
Cosmos 2100 Rocket 4.3 01:08:35 10° N 01:14:14 60° ENE 01:14:14 60° ENE
H-2A R/B 4.5 01:11:45 10° NNE 01:13:44 27° NNE 01:13:44 27° NNE
Lacrosse 5 rocket 3.6 01:13:42 10° NNW 01:17:32 25° NE 01:18:05 24° NE
Cosmos 2061 Rocket 4.4 01:12:17 10° N 01:18:12 55° ENE 01:18:12 55° ENE
SL-16 R/B 3.1 01:14:02 10° NNW 01:17:50 42° NW 01:17:50 42° NW
USA 234 3.2 01:20:16 77° WNW 01:20:16 77° WNW 01:26:19 10° NW
NOSS 3-1 (A) 4.1 01:21:51 10° NNW 01:29:39 80° ENE 01:31:27 59° SE
Cosmos 2221 4.3 01:29:58 10° N 01:32:14 30° N 01:32:14 30° N
Lacrosse 5 2.8 01:36:31 45° N 01:36:31 45° N 01:40:21 10° NNE
Cosmos 2322 4.1 01:34:26 10° NNW 01:39:47 58° NE 01:39:47 58° NE
Cosmos 2123 Rocket 4.3 01:41:09 55° E 01:41:12 55° E 01:47:13 10° NNE
Cosmos 2219 3.6 01:52:43 53° E 01:52:43 53° E 01:57:33 10° NNE
COSMOS 2428 3.8 01:46:49 10° N 01:52:12 39° ENE 01:53:57 32° E
Cosmos 1992 Rocket 4.3 01:59:10 10° NNW 02:03:31 62° N 02:03:31 62° N
Cosmos 2360 Rocket 2.6 02:00:15 10° NNW 02:04:43 54° NW 02:04:43 54° NW
SL-08 R/B 4.3 02:10:18 40° E 02:10:54 42° ENE 02:15:33 10° N
Cosmos 1725 Rocket 3.9 02:05:58 10° N 02:12:19 82° E 02:12:57 73° SE
Cosmos 2322 Rocket 4.2 02:10:25 10° NW 02:12:00 16° WNW 02:12:00 16° WNW
SL-08 R/B 4.3 02:13:42 10° N 02:19:47 72° W 02:19:50 72° W
Cosmos 2333 Rocket 3.7 02:20:26 10° N 02:25:37 34° ENE 02:30:45 10° SE
AQUA 4.2 02:21:36 10° NNE 02:26:02 59° E 02:26:02 59° E
Resurs 1-4 Rocket 3.3 02:21:53 10° NE 02:26:37 32° E 02:27:46 29° ESE
CZ-2D R/B 3.2 02:26:20 10° NNE 02:31:04 34° E 02:32:11 31° ESE
IRS-P3 Rocket 4.4 02:28:34 10° NNE 02:33:50 90° SSE 02:33:55 87° S
SL-8 R/B 3.8 02:37:46 73° N 02:37:46 73° N 02:42:14 10° NE
ERBS 4.3 02:40:42 27° ENE 02:40:42 27° ENE 02:42:24 10° NE
SL-16 R/B 3.2 02:37:30 21° SE 02:41:33 52° ENE 02:47:30 10° N
ADEOS 4.5 02:36:39 10° NNE 02:41:33 40° E 02:42:52 34° SE
Cosmos 2297 Rocket 3.2 02:40:46 31° SE 02:42:11 36° ESE 02:47:18 10° NE
Cosmos 1500 Rocket 3.7 02:44:31 72° ENE 02:44:31 72° ENE 02:48:38 10° N
IRS-1C 4.0 02:43:43 10° NNE 02:49:05 89° ESE 02:49:48 68° S
Cosmos 1626 3.4 02:49:54 35° E 02:49:54 35° E 02:53:16 10° NNE
Cosmos 2219 Rocket 2.3 02:46:44 10° NNW 02:52:26 72° ENE 02:55:33 28° SE
GPS 2-04 Rocket1 3.5 02:54:10 45° E 02:54:10 45° E 02:57:14 10° E
COBE Rocket 4.1 02:50:13 10° NNE 02:54:50 58° E 02:55:32 52° SE
BREEZE-M DEB 3.2 02:55:06 72° SSE 02:55:14 72° SE 02:58:07 10° ENE
Lacrosse 5 rocket 3.6 02:52:35 10° NW 02:53:40 17° WNW 02:53:40 17° WNW
NOSS 0 Rocket 4.2 02:54:38 10° NNW 03:00:48 67° ENE 03:06:59 10° SSE
Meteor 2-2 Rocket 4.2 02:55:27 10° NNW 03:00:59 59° W 03:01:36 55° SW
Cosmos 1140 Rocket 3.4 03:00:48 61° S 03:01:44 83° ESE 03:06:58 10° NNE
Cosmos 1300 3.8 02:59:53 10° NNW 03:02:23 35° NW 03:02:23 35° NW
Cosmos 1743 Rocket 4.2 03:04:41 43° WNW 03:04:41 43° WNW 03:08:34 10° N
Cosmos 2237 Rocket 3.0 02:59:19 10° N 03:04:48 50° ENE 03:10:14 10° SE
Cosmos 1515 Rocket 3.5 03:01:32 10° NNW 03:05:45 66° WNW 03:05:45 66° WNW
Meteor 2-12 Rocket 4.3 03:03:49 10° N 03:09:58 77° W 03:12:18 40° S
Cosmos 614 Rocket 4.0 03:08:43 52° S 03:10:01 79° ESE 03:15:16 10° NNE
ISS -0.4 03:11:42 10° N 03:13:06 12° NNE 03:14:29 10° NE
NOSS 2-1 (D) 3.0 03:17:05 80° W 03:17:13 82° NW 03:21:18 10° NNE
NOSS 2-1 (C) 3.0 03:17:15 82° WSW 03:17:23 84° WNW 03:21:27 10° NNE
Cosmos 2227 Rocket 2.1 03:17:13 46° SSW 03:19:00 81° WNW 03:24:42 10° NNE
Lacrosse 5 4.3 03:16:50 10° NW 03:19:20 13° NNW 03:21:50 10° N
Cosmos 1726 4.2 03:17:53 10° NW 03:19:17 17° NW 03:19:17 17° NW
ATLAS 2AS CENTAUR R/B 2.8 03:13:01 10° NNW 03:21:00 82° WSW 03:28:16 10° SSE
NOSS 7 (E) 4.4 03:22:08 70° NNW 03:22:08 70° NNW 03:25:16 10° NNE
Cosmos 1954 Rocket 4.4 03:20:53 42° WSW 03:22:03 50° WNW 03:27:10 10° N
ARIANE 5 R/B 2.4 03:17:42 10° N 03:22:49 78° WNW 03:24:25 44° SSW
NOSS 3-3 (A) 4.4 03:22:59 34° WSW 03:25:23 52° NW 03:31:50 10° NNE
NOSS 3-3 (C) 4.4 03:23:04 34° WSW 03:25:29 53° NW 03:31:56 10° NNE
Cosmos 2034 Rocket 4.4 03:19:57 10° N 03:26:15 62° E 03:32:32 10° SSE
Cosmos 2058 3.1 03:27:07 48° W 03:27:16 48° W 03:31:16 10° N
Cosmos 2228 Rocket 4.3 03:24:42 10° NNW 03:27:56 27° WNW 03:27:56 27° WNW
Cosmos 1633 Rocket 4.5 03:25:57 15° SSE 03:28:59 34° E 03:32:56 10° NNE
Meteor 1-27 4.3 03:29:03 10° NNW 03:34:45 61° W 03:37:43 29° SSW
Tsikada Rocket 4.4 03:30:57 16° S 03:36:04 64° E 03:42:23 10° NNE
Sich 1 3.7 03:33:29 21° SSE 03:36:09 51° E 03:40:26 10° NNE
COSMOS 2428 3.8 03:31:33 10° NW 03:35:54 26° W 03:35:54 26° W
ADEOS Rocket 3.7 03:29:49 10° N 03:36:59 56° WNW 03:41:15 27° SW
NOSS 2-1 (E) 3.6 03:39:20 42° W 03:40:09 51° NW 03:44:14 10° NNE
DELTA 2 R/B (1) 3.7 03:42:52 33° SW 03:45:14 61° SSE 03:50:42 10° ENE
Cosmos 2082 3.9 03:43:59 31° SW 03:46:28 55° WNW 03:52:00 10° NNE
Cosmos 1703 4.0 03:46:40 34° W 03:47:06 35° W 03:50:43 10° NNW
Cosmos 1455 2.1 03:43:42 10° N 03:47:34 76° W 03:49:24 30° S
ATLAS 3B CENTAUR R/B 3.2 03:39:34 17° WSW 03:48:22 45° SSW 03:53:10 10° ESE
Lacrosse 4 Rocket 2.8 03:49:17 16° SSE 03:51:59 33° ESE 03:55:44 10° NE
OAO 3 Copernicus 4.2 03:49:45 23° W 03:52:53 74° S 03:57:57 10° E
CZ-2D R/B 3.3 03:49:48 10° N 03:53:49 77° WNW 03:55:51 29° SSW
Cosmos 2208 Rocket 4.0 03:51:14 10° NNW 03:56:28 84° ENE 04:01:41 10° SSE
MOZ.5/SAFIR/RUBIN 5/SL-8 3.7 03:53:53 11° S 03:58:20 76° WSW 04:03:08 10° NNW
Cosmos 1151 Rocket 4.4 03:56:10 10° NW 03:59:25 21° W 03:59:37 21° W
Cosmos 1900 4.5 03:58:38 27° SW 04:01:11 60° WNW 04:06:08 10° NNE
UNKNOWN OBJECT B 3.3 04:01:55 10° N 04:05:46 43° WNW 04:07:34 26° SW
Resurs 1-4 Rocket 3.2 04:01:50 10° N 04:06:18 28° WNW 04:08:51 19° WSW
Cosmos 1707 Rocket 3.5 04:02:01 10° NNW 04:06:21 71° W 04:10:34 11° S
Cosmos 2333 Rocket 3.0 04:04:52 10° NW 04:09:43 30° WSW 04:12:58 17° SSW
CZ-2D R/B 3.3 04:06:43 10° NNW 04:10:57 26° WNW 04:13:31 18° WSW
APEX 4.4 04:06:38 19° SSW 04:10:59 85° WNW 04:18:02 10° NNE
Cosmos 1666 Rocket 3.9 04:15:14 19° SSW 04:18:04 47° W 04:22:21 10° N
MOS 1 Rocket 3.9 04:14:24 10° N 04:19:18 50° WNW 04:23:29 15° SW
Cosmos 468 Rocket 4.5 04:15:47 10° NNW 04:20:57 64° ENE 04:26:03 10° SSE
ADEOS II 2.5 04:16:52 10° NNE 04:22:06 62° E 04:27:17 10° S
Cosmos 1626 4.3 04:24:34 11° W 04:25:21 12° WNW 04:26:41 10° NW
SL-16 R/B 3.7 04:22:35 16° SW 04:25:24 22° W 04:30:01 10° NW
Cosmos 2297 Rocket 3.3 04:22:35 15° WSW 04:26:14 28° WNW 04:31:05 10° N
Cosmos 1933 Rocket 3.8 04:23:32 10° S 04:27:59 74° E 04:32:27 10° N
Aureole 2 Rocket 4.2 04:25:09 10° NW 04:28:11 21° W 04:30:01 16° SW
Cosmos 1241 Rocket 4.4 04:21:53 10° NNW 04:28:17 71° WSW 04:34:31 10° SSE
MOS 1-B 4.4 04:24:13 10° N 04:29:57 65° WNW 04:35:38 10° SSW
GPS 2-04 Rocket1 2.8 04:28:38 10° W 04:32:48 70° S 04:37:05 10° ESE
Hubble Space Telescope 2.6 04:34:06 13° SSW 04:34:57 13° SSW 04:37:01 10° S
Cosmos 2219 Rocket 3.9 04:33:07 10° WNW 04:35:39 13° W 04:37:09 12° WSW
Okean O Rocket 1.7 04:31:31 10° NNE 04:35:53 80° ESE 04:40:12 10° S
Meteor 2-10 Rocket 4.2 04:30:59 10° N 04:35:54 56° E 04:40:50 10° SSE
Cosmos 1634 Rocket 4.0 04:30:28 10° N 04:36:41 87° E 04:42:51 10° S
GP-B 3.4 04:34:24 10° N 04:38:50 72° E 04:43:15 10° S
Cosmos 1814 Rocket 4.5 04:34:24 10° NNW 04:39:45 68° ENE 04:45:04 10° SSE
CZ-4B R/B 3.1 04:36:01 10° N 04:40:30 84° WNW 04:44:46 10° SSW
USA 161 2.9 04:44:07 12° W 04:44:07 12° W 04:45:02 10° WNW
Cosmos 1400 Rocket 3.1 04:40:30 10° S 04:44:20 66° E 04:48:13 10° NNE
CZ-3A R/B 3.9 04:41:06 10° NNW 04:44:46 43° NE 04:56:48 10° ESE
SL-16 R/B 2.4 04:41:11 10° NNW 04:46:41 52° WSW 04:52:09 10° S
Cosmos 2227 4.3 04:41:35 10° SSW 04:47:21 87° WNW 04:53:08 10° NNE
Cosmos 2237 Rocket 3.5 04:44:31 10° NW 04:48:23 19° W 04:52:14 10° SW
CZ-4B R/B 3.2 04:43:08 10° NNE 04:48:28 84° ESE 04:53:50 10° SSW
Cosmos 1763 Rocket 4.1 04:44:48 10° N 04:50:01 63° ENE 04:55:08 10° SSE
ISS -3.5 04:46:51 10° NW 04:50:07 69° NE 04:53:21 10° SE
SL-24 R/B 4.4 04:47:29 10° N 04:52:01 74° WNW 04:57:15 10° SSW
CZ-4B DEB 4.2 04:51:24 10° N 04:56:53 80° WNW 05:02:20 10° SSW
Okean-O 4.2 04:57:14 10° NNE 05:01:21 37° E 05:05:27 10° SSE
Cosmos 332 Rocket 3.8 04:57:21 10° NNW 05:02:11 75° WSW 05:07:00 10° S
Cosmos 1470 Rocket 4.2 04:58:18 10° SSW 05:02:18 37° W 05:06:19 10° N
Cosmos 2227 Rocket 4.3 05:02:09 10° WNW 05:03:56 11° NW 05:05:44 10° NNW
Meteor 1-31 Rocket 3.7 05:00:46 10° NNE 05:04:37 51° E 05:08:26 10° S
